User: anonymous   Login
Location: Unspecified
(0.0000°N, 0.0000°E)
Time: 20:13:38
(UTC+00:00)
Language:

SENTINEL 3A - Orbit

View from above orbital plane
View from above orbital plane
View from above satellite
View from above satellite

Ground track
Ground track

The orbit data is extracted from the following two-line orbital elements,

1 41335U 16011A   18344.49157117  .00000012  00000-0  22799-4 0  9996
2 41335  98.6204  49.1668 0001063  87.6391 272.4911 14.26739978146547
Epoch (UTC): 10 December 2018 11:47:51
Eccentricity: 0.0001063
inclination: 98.6204°
perigee height: 802 km
apogee height: 803 km
right ascension of ascending node: 49.1668°
argument of perigee: 87.6391°
revolutions per day: 14.26739978
mean anomaly at epoch: 272.4911°
orbit number at epoch: 14654

The dashed part of the orbit path shows where the satellite is in the earth's shadow,  

DLR